Location: Crescent
(42.8242°N, 73.7329°W)
Time: 05:47:37
(UTC+00:00)

Tiros 1 - Pass Details

Date: 18 February 2026
Orbit: 618 x 649 km, 48.4° (Epoch: 5 March)

Event Time Altitude Azimuth Distance (km) Brightness Sun altitude
Rises 18:17:55 0° 295° (WNW) 2,895 10.5 33.5°
Reaches altitude 10° 18:20:14 10° 296° (WNW) 1,984 9.7 33.3°
Maximum altitude 18:24:49 86° 27° (NNE) 623 7.6 33.0°
Drops below altitude 10° 18:29:21 10° 115° (ESE) 1,975 9.8 32.7°
Sets 18:31:39 0° 116° (ESE) 2,880 10.5 32.5°
